BFL227 AGGH-AYPY

Flight info

Callsign BFL227
Flight time 3h 40m
Altitude 16000
Route TAMOR DCT AYMS DCT 11S50 DCT LOTGU
Aircraft TBM9/L-SDFGRWY/S

Departure

Time 2026-04-27 14:17
Airport Honiara International Airport (AGGH)

Arrival

Time 2026-04-27 17:58
Airport Port Moresby Jacksons International Airport (AYPY)
Time Latitude Longitude Altitude Speed Heading
2026-04-27 13:49 -9.42900 160.04855 34 ft 0 kts 337°
2026-04-27 14:10 -9.42914 160.04861 34 ft 2 kts 337°
2026-04-27 14:10 -9.42922 160.04864 34 ft 0 kts 337°
2026-04-27 14:10 -9.42907 160.04876 34 ft 5 kts 88°
2026-04-27 14:11 -9.42905 160.04919 34 ft 8 kts 92°
2026-04-27 14:11 -9.42934 160.04970 33 ft 10 kts 149°
2026-04-27 14:11 -9.42974 160.05019 32 ft 10 kts 75°
2026-04-27 14:11 -9.42944 160.05092 32 ft 12 kts 67°
2026-04-27 14:12 -9.42917 160.05159 32 ft 11 kts 68°
2026-04-27 14:12 -9.42886 160.05235 32 ft 12 kts 68°
2026-04-27 14:12 -9.42853 160.05321 32 ft 14 kts 68°
2026-04-27 14:12 -9.42817 160.05424 30 ft 17 kts 70°
2026-04-27 14:13 -9.42772 160.05540 29 ft 17 kts 68°
2026-04-27 14:13 -9.42726 160.05649 28 ft 15 kts 66°
2026-04-27 14:13 -9.42685 160.05743 27 ft 15 kts 66°
2026-04-27 14:13 -9.42643 160.05849 25 ft 17 kts 71°
2026-04-27 14:14 -9.42602 160.05959 25 ft 16 kts 69°
2026-04-27 14:14 -9.42557 160.06070 25 ft 18 kts 67°
2026-04-27 14:14 -9.42513 160.06185 24 ft 18 kts 67°
2026-04-27 14:14 -9.42472 160.06273 24 ft 11 kts 62°
2026-04-27 14:15 -9.42432 160.06327 25 ft 7 kts 97°
2026-04-27 14:15 -9.42469 160.06328 24 ft 8 kts 254°
2026-04-27 14:15 -9.42476 160.06306 24 ft 0 kts 247°
2026-04-27 14:16 -9.42523 160.06192 24 ft 42 kts 247°
2026-04-27 14:17 -9.42702 160.05730 27 ft 98 kts 249°
2026-04-27 14:17 -9.43019 160.04974 200 ft 129 kts 246°
2026-04-27 14:17 -9.43367 160.04146 833 ft 122 kts 247°
2026-04-27 14:17 -9.43687 160.03255 1191 ft 146 kts 252°
2026-04-27 14:18 -9.43986 160.02259 1771 ft 149 kts 255°
2026-04-27 14:18 -9.44199 160.01219 2350 ft 153 kts 262°
2026-04-27 14:18 -9.44283 160.00116 2852 ft 164 kts 270°
2026-04-27 14:18 -9.44275 159.98804 2766 ft 207 kts 271°
2026-04-27 14:19 -9.44234 159.97249 2796 ft 228 kts 273°
2026-04-27 14:19 -9.44154 159.95628 3047 ft 233 kts 274°
2026-04-27 14:19 -9.44014 159.93979 3288 ft 236 kts 279°
2026-04-27 14:19 -9.43678 159.92345 3531 ft 236 kts 282°
2026-04-27 14:20 -9.43520 159.90703 3754 ft 234 kts 269°
2026-04-27 14:20 -9.43706 159.89074 3987 ft 232 kts 261°
2026-04-27 14:20 -9.43964 159.87462 4225 ft 231 kts 262°
2026-04-27 14:20 -9.44163 159.85848 4467 ft 231 kts 264°
2026-04-27 14:21 -9.44346 159.84235 4708 ft 231 kts 264°
2026-04-27 14:21 -9.44537 159.82622 4942 ft 231 kts 263°
2026-04-27 14:21 -9.44732 159.81007 5174 ft 231 kts 263°
2026-04-27 14:21 -9.44927 159.79389 5413 ft 231 kts 263°
2026-04-27 14:22 -9.45119 159.77770 5649 ft 232 kts 263°
2026-04-27 14:22 -9.45312 159.76148 5917 ft 232 kts 263°
2026-04-27 14:22 -9.45503 159.74557 6204 ft 231 kts 263°
2026-04-27 14:22 -9.45697 159.72944 6479 ft 230 kts 263°
2026-04-27 14:23 -9.45888 159.71338 6749 ft 230 kts 263°
2026-04-27 14:23 -9.46080 159.69733 7031 ft 230 kts 263°
2026-04-27 14:23 -9.46272 159.68116 7301 ft 230 kts 263°
2026-04-27 14:23 -9.46464 159.66504 7582 ft 231 kts 263°
2026-04-27 14:24 -9.46657 159.64890 7871 ft 231 kts 263°
2026-04-27 14:24 -9.46849 159.63276 8157 ft 231 kts 263°
2026-04-27 14:24 -9.47041 159.61663 8443 ft 232 kts 263°
2026-04-27 14:24 -9.47235 159.60038 8735 ft 232 kts 263°
2026-04-27 14:25 -9.47428 159.58410 9035 ft 233 kts 263°
2026-04-27 14:25 -9.47621 159.56782 9331 ft 233 kts 263°
2026-04-27 14:25 -9.47816 159.55146 9631 ft 234 kts 263°
2026-04-27 14:25 -9.48010 159.53506 9913 ft 235 kts 263°
2026-04-27 14:26 -9.48205 159.51866 10184 ft 235 kts 263°
2026-04-27 14:26 -9.48401 159.50216 10458 ft 236 kts 264°
2026-04-27 14:26 -9.48597 159.48567 10737 ft 237 kts 264°
2026-04-27 14:26 -9.48793 159.46909 11018 ft 237 kts 264°
2026-04-27 14:27 -9.48990 159.45248 11301 ft 237 kts 264°
2026-04-27 14:27 -9.49187 159.43590 11580 ft 238 kts 264°
2026-04-27 14:27 -9.49384 159.41921 11868 ft 239 kts 264°
2026-04-27 14:27 -9.49582 159.40255 12157 ft 239 kts 264°
2026-04-27 14:28 -9.49780 159.38580 12451 ft 240 kts 264°
2026-04-27 14:28 -9.49977 159.36906 12748 ft 240 kts 264°
2026-04-27 14:28 -9.50177 159.35224 13044 ft 241 kts 265°
2026-04-27 14:28 -9.50377 159.33537 13345 ft 241 kts 264°
2026-04-27 14:29 -9.50576 159.31852 13648 ft 242 kts 265°
2026-04-27 14:29 -9.50776 159.30158 13919 ft 242 kts 265°
2026-04-27 14:29 -9.50976 159.28461 14184 ft 242 kts 265°
2026-04-27 14:29 -9.51175 159.26768 14461 ft 243 kts 265°
2026-04-27 14:30 -9.51376 159.25068 14736 ft 243 kts 265°
2026-04-27 14:30 -9.51576 159.23373 15011 ft 243 kts 265°
2026-04-27 14:30 -9.51776 159.21674 15290 ft 243 kts 265°
2026-04-27 14:30 -9.51976 159.19975 15574 ft 243 kts 265°
2026-04-27 14:31 -9.52177 159.18271 15840 ft 244 kts 265°
2026-04-27 14:31 -9.52380 159.16527 15858 ft 255 kts 265°
2026-04-27 14:31 -9.52590 159.14716 15863 ft 263 kts 265°
2026-04-27 14:31 -9.52807 159.12860 15869 ft 268 kts 265°
2026-04-27 14:32 -9.53029 159.10968 15870 ft 272 kts 265°
2026-04-27 14:32 -9.53254 159.09057 15869 ft 275 kts 265°
2026-04-27 14:32 -9.53480 159.07132 15870 ft 277 kts 265°
2026-04-27 14:32 -9.53709 159.05189 15869 ft 278 kts 265°
2026-04-27 14:33 -9.53937 159.03245 15869 ft 279 kts 264°
2026-04-27 14:33 -9.54292 159.01307 15863 ft 280 kts 260°
2026-04-27 14:33 -9.54683 158.99371 15862 ft 280 kts 260°
2026-04-27 14:33 -9.55057 158.97436 15863 ft 280 kts 261°
2026-04-27 14:34 -9.55431 158.95494 15861 ft 281 kts 261°
2026-04-27 14:34 -9.55810 158.93552 15859 ft 281 kts 261°
2026-04-27 14:34 -9.56190 158.91616 15861 ft 281 kts 261°
2026-04-27 14:34 -9.56568 158.89673 15860 ft 281 kts 261°
2026-04-27 14:35 -9.56945 158.87736 15860 ft 281 kts 261°
2026-04-27 14:35 -9.57324 158.85793 15858 ft 281 kts 261°
2026-04-27 14:35 -9.57702 158.83855 15855 ft 281 kts 261°
2026-04-27 14:35 -9.58079 158.81911 15856 ft 281 kts 261°
2026-04-27 14:36 -9.58456 158.79968 15856 ft 281 kts 261°
2026-04-27 14:36 -9.58834 158.78031 15853 ft 281 kts 261°
2026-04-27 14:36 -9.59211 158.76088 15852 ft 281 kts 261°
2026-04-27 14:36 -9.59589 158.74145 15852 ft 281 kts 261°
2026-04-27 14:37 -9.59965 158.72209 15852 ft 281 kts 261°
2026-04-27 14:37 -9.60343 158.70267 15852 ft 281 kts 261°
2026-04-27 14:37 -9.60718 158.68331 15854 ft 281 kts 261°
2026-04-27 14:37 -9.61095 158.66392 15852 ft 280 kts 261°
2026-04-27 14:38 -9.61472 158.64451 15852 ft 280 kts 261°
2026-04-27 14:38 -9.61848 158.62510 15852 ft 280 kts 261°
2026-04-27 14:38 -9.62225 158.60569 15851 ft 280 kts 261°
2026-04-27 14:38 -9.62601 158.58631 15852 ft 280 kts 261°
2026-04-27 14:39 -9.62975 158.56698 15850 ft 280 kts 261°
2026-04-27 14:39 -9.63346 158.54784 15850 ft 280 kts 261°
2026-04-27 14:39 -9.63725 158.52825 15852 ft 280 kts 261°
2026-04-27 14:39 -9.64101 158.50885 15853 ft 280 kts 261°
2026-04-27 14:40 -9.64475 158.48951 15851 ft 280 kts 261°
2026-04-27 14:40 -9.64851 158.47011 15853 ft 280 kts 261°
2026-04-27 14:40 -9.65226 158.45070 15851 ft 280 kts 261°
2026-04-27 14:40 -9.65600 158.43137 15852 ft 280 kts 261°
2026-04-27 14:41 -9.65970 158.41222 15853 ft 280 kts 261°
2026-04-27 14:41 -9.66345 158.39282 15850 ft 280 kts 261°
2026-04-27 14:41 -9.66719 158.37348 15852 ft 280 kts 261°
2026-04-27 14:41 -9.67094 158.35407 15850 ft 280 kts 261°
2026-04-27 14:42 -9.67472 158.33447 15853 ft 280 kts 261°
2026-04-27 14:42 -9.67842 158.31533 15851 ft 280 kts 261°
2026-04-27 14:42 -9.68216 158.29592 15852 ft 280 kts 261°
2026-04-27 14:42 -9.68589 158.27659 15853 ft 280 kts 261°
2026-04-27 14:43 -9.68963 158.25720 15852 ft 280 kts 261°
2026-04-27 14:43 -9.69336 158.23787 15853 ft 280 kts 261°
2026-04-27 14:43 -9.69709 158.21849 15849 ft 280 kts 261°
2026-04-27 14:43 -9.70083 158.19910 15853 ft 280 kts 261°
2026-04-27 14:44 -9.70455 158.17978 15852 ft 280 kts 261°
2026-04-27 14:44 -9.70828 158.16040 15852 ft 280 kts 261°
2026-04-27 14:44 -9.71200 158.14109 15852 ft 280 kts 261°
2026-04-27 14:44 -9.71573 158.12172 15853 ft 280 kts 261°
2026-04-27 14:45 -9.71945 158.10235 15852 ft 280 kts 261°
2026-04-27 14:45 -9.72317 158.08298 15850 ft 280 kts 261°
2026-04-27 14:45 -9.72689 158.06368 15852 ft 280 kts 261°
2026-04-27 14:45 -9.73061 158.04432 15853 ft 280 kts 261°
2026-04-27 14:46 -9.73431 158.02502 15852 ft 279 kts 261°
2026-04-27 14:46 -9.73803 158.00566 15854 ft 279 kts 261°
2026-04-27 14:46 -9.74175 157.98631 15851 ft 279 kts 261°
2026-04-27 14:46 -9.74546 157.96698 15850 ft 279 kts 261°
2026-04-27 14:47 -9.74916 157.94771 15850 ft 279 kts 261°
2026-04-27 14:47 -9.75287 157.92839 15854 ft 279 kts 261°
2026-04-27 14:47 -9.75657 157.90907 15849 ft 279 kts 261°
2026-04-27 14:47 -9.76026 157.88981 15852 ft 279 kts 261°
2026-04-27 14:48 -9.76392 157.87074 15854 ft 279 kts 261°
2026-04-27 14:48 -9.77131 157.83216 15852 ft 279 kts 261°
2026-04-27 14:48 -9.77500 157.81285 15854 ft 279 kts 261°
2026-04-27 14:49 -9.77874 157.79335 15851 ft 279 kts 261°
2026-04-27 14:49 -9.78243 157.77404 15852 ft 279 kts 261°
2026-04-27 14:49 -9.78611 157.75480 15852 ft 279 kts 261°
2026-04-27 14:49 -9.78980 157.73550 15852 ft 278 kts 261°
2026-04-27 14:50 -9.79344 157.71646 15852 ft 279 kts 261°
2026-04-27 14:50 -9.79716 157.69697 15852 ft 279 kts 261°
2026-04-27 14:50 -9.80086 157.67767 15850 ft 279 kts 261°
2026-04-27 14:50 -9.80454 157.65836 15853 ft 279 kts 261°
2026-04-27 14:51 -9.80816 157.63938 15847 ft 279 kts 261°
2026-04-27 14:51 -9.81185 157.62008 15849 ft 278 kts 261°
2026-04-27 14:51 -9.81552 157.60085 15850 ft 278 kts 261°
2026-04-27 14:51 -9.81800 157.58783 15850 ft 278 kts 261°
2026-04-27 14:52 -9.82288 157.56226 15850 ft 278 kts 261°
2026-04-27 14:52 -9.82655 157.54299 15850 ft 278 kts 261°
2026-04-27 14:52 -9.83021 157.52376 15854 ft 278 kts 261°
2026-04-27 14:52 -9.83388 157.50448 15847 ft 278 kts 261°
2026-04-27 14:53 -9.83755 157.48526 15847 ft 278 kts 261°
2026-04-27 14:53 -9.83997 157.47252 15849 ft 278 kts 261°
2026-04-27 14:53 -9.84363 157.45326 15851 ft 278 kts 261°
2026-04-27 14:53 -9.84730 157.43400 15849 ft 278 kts 261°
2026-04-27 14:54 -9.85095 157.41480 15851 ft 278 kts 261°
2026-04-27 14:54 -9.85461 157.39552 15847 ft 278 kts 261°
2026-04-27 14:54 -9.85828 157.37625 15848 ft 278 kts 261°
2026-04-27 14:54 -9.86193 157.35704 15850 ft 278 kts 261°
2026-04-27 14:55 -9.86559 157.33777 15849 ft 278 kts 261°
2026-04-27 14:55 -9.86925 157.31851 15846 ft 278 kts 261°
2026-04-27 14:55 -9.87289 157.29931 15848 ft 278 kts 261°
2026-04-27 14:55 -9.87655 157.28006 15849 ft 278 kts 261°
2026-04-27 14:56 -9.88019 157.26087 15850 ft 278 kts 261°
2026-04-27 14:56 -9.88384 157.24161 15847 ft 278 kts 261°
2026-04-27 14:56 -9.88748 157.22241 15851 ft 278 kts 261°
2026-04-27 14:56 -9.89113 157.20316 15847 ft 278 kts 261°
2026-04-27 14:57 -9.89479 157.18390 15849 ft 278 kts 261°
2026-04-27 14:57 -9.89842 157.16471 15849 ft 278 kts 261°
2026-04-27 14:57 -9.90206 157.14545 15847 ft 278 kts 261°
2026-04-27 14:57 -9.90571 157.12620 15848 ft 278 kts 261°
2026-04-27 14:58 -9.90934 157.10702 15850 ft 278 kts 261°
2026-04-27 14:58 -9.91298 157.08777 15848 ft 278 kts 261°
2026-04-27 14:58 -9.91661 157.06859 15847 ft 278 kts 261°
2026-04-27 14:58 -9.92025 157.04934 15849 ft 278 kts 261°
2026-04-27 14:59 -9.92389 157.03008 15850 ft 278 kts 261°
2026-04-27 14:59 -9.92751 157.01090 15850 ft 278 kts 261°
2026-04-27 14:59 -9.93114 156.99165 15847 ft 278 kts 261°
2026-04-27 14:59 -9.93478 156.97241 15850 ft 277 kts 261°
2026-04-27 15:00 -9.93840 156.95323 15849 ft 277 kts 261°
2026-04-27 15:00 -9.94203 156.93399 15849 ft 277 kts 261°
2026-04-27 15:00 -9.94565 156.91482 15850 ft 277 kts 261°
2026-04-27 15:00 -9.94923 156.89582 15850 ft 278 kts 261°
2026-04-27 15:01 -9.95285 156.87657 15849 ft 278 kts 261°
2026-04-27 15:01 -9.95647 156.85738 15850 ft 278 kts 261°
2026-04-27 15:01 -9.96010 156.83814 15850 ft 277 kts 261°
2026-04-27 15:01 -9.96376 156.81871 15848 ft 277 kts 261°
2026-04-27 15:02 -9.96733 156.79973 15852 ft 277 kts 261°
2026-04-27 15:02 -9.97094 156.78050 15849 ft 277 kts 261°
2026-04-27 15:02 -9.97454 156.76134 15852 ft 277 kts 261°
2026-04-27 15:02 -9.97817 156.74211 15852 ft 277 kts 261°
2026-04-27 15:03 -9.98177 156.72294 15853 ft 277 kts 261°
2026-04-27 15:03 -9.98538 156.70373 15851 ft 277 kts 261°
2026-04-27 15:03 -9.98899 156.68453 15849 ft 277 kts 261°
2026-04-27 15:03 -9.99259 156.66539 15851 ft 277 kts 261°
2026-04-27 15:04 -9.99619 156.64619 15849 ft 277 kts 261°
2026-04-27 15:04 -9.99978 156.62706 15851 ft 277 kts 261°
2026-04-27 15:04 -10.00338 156.60786 15849 ft 277 kts 261°
2026-04-27 15:04 -10.00698 156.58866 15848 ft 277 kts 261°
2026-04-27 15:05 -10.01057 156.56953 15847 ft 277 kts 261°
2026-04-27 15:05 -10.01416 156.55034 15847 ft 277 kts 261°
2026-04-27 15:05 -10.01776 156.53117 15844 ft 276 kts 261°
2026-04-27 15:05 -10.02134 156.51208 15848 ft 276 kts 261°
2026-04-27 15:06 -10.02493 156.49293 15850 ft 276 kts 261°
2026-04-27 15:06 -10.02849 156.47386 15848 ft 276 kts 261°
2026-04-27 15:06 -10.03207 156.45473 15846 ft 276 kts 261°
2026-04-27 15:06 -10.03565 156.43560 15846 ft 276 kts 261°
2026-04-27 15:07 -10.03922 156.41654 15848 ft 276 kts 261°
2026-04-27 15:07 -10.04279 156.39741 15845 ft 276 kts 261°
2026-04-27 15:07 -10.04636 156.37830 15844 ft 275 kts 261°
2026-04-27 15:07 -10.04993 156.35926 15846 ft 275 kts 261°
2026-04-27 15:08 -10.05349 156.34016 15846 ft 275 kts 261°
2026-04-27 15:08 -10.05704 156.32113 15847 ft 275 kts 261°
2026-04-27 15:08 -10.06062 156.30203 15846 ft 275 kts 261°
2026-04-27 15:08 -10.06417 156.28294 15846 ft 275 kts 261°
2026-04-27 15:09 -10.06773 156.26391 15847 ft 275 kts 261°
2026-04-27 15:09 -10.07129 156.24480 15845 ft 275 kts 261°
2026-04-27 15:09 -10.07484 156.22569 15848 ft 275 kts 261°
2026-04-27 15:09 -10.07839 156.20665 15846 ft 275 kts 261°
2026-04-27 15:10 -10.08196 156.18755 15846 ft 275 kts 261°
2026-04-27 15:10 -10.08550 156.16850 15851 ft 275 kts 261°
2026-04-27 15:10 -10.08907 156.14938 15851 ft 275 kts 261°
2026-04-27 15:10 -10.09261 156.13026 15850 ft 275 kts 261°
2026-04-27 15:11 -10.09615 156.11120 15849 ft 276 kts 261°
2026-04-27 15:11 -10.09968 156.09232 15848 ft 276 kts 261°
2026-04-27 15:11 -10.10327 156.07301 15849 ft 275 kts 261°
2026-04-27 15:11 -10.10677 156.05414 15850 ft 276 kts 261°
2026-04-27 15:12 -10.11032 156.03501 15850 ft 275 kts 261°
2026-04-27 15:12 -10.11387 156.01595 15849 ft 275 kts 261°
2026-04-27 15:12 -10.11742 155.99682 15853 ft 276 kts 261°
2026-04-27 15:12 -10.12096 155.97775 15853 ft 276 kts 261°
2026-04-27 15:13 -10.12451 155.95861 15852 ft 276 kts 261°
2026-04-27 15:13 -10.12806 155.93946 15851 ft 276 kts 261°
2026-04-27 15:13 -10.13161 155.92037 15852 ft 276 kts 261°
2026-04-27 15:13 -10.13515 155.90121 15852 ft 276 kts 261°
2026-04-27 15:14 -10.13869 155.88212 15851 ft 276 kts 261°
2026-04-27 15:14 -10.14223 155.86296 15853 ft 276 kts 261°
2026-04-27 15:14 -10.14579 155.84381 15854 ft 276 kts 261°
2026-04-27 15:14 -10.14932 155.82472 15855 ft 276 kts 261°
2026-04-27 15:15 -10.15286 155.80557 15854 ft 276 kts 261°
2026-04-27 15:15 -10.15641 155.78640 15853 ft 276 kts 261°
2026-04-27 15:15 -10.15994 155.76729 15854 ft 276 kts 261°
2026-04-27 15:15 -10.16349 155.74813 15855 ft 276 kts 261°
2026-04-27 15:16 -10.16702 155.72904 15854 ft 276 kts 261°
2026-04-27 15:16 -10.17055 155.70989 15856 ft 276 kts 261°
2026-04-27 15:16 -10.17409 155.69075 15854 ft 276 kts 261°
2026-04-27 15:16 -10.17761 155.67167 15856 ft 276 kts 261°
2026-04-27 15:17 -10.18112 155.65264 15856 ft 276 kts 261°
2026-04-27 15:17 -10.18468 155.63336 15853 ft 276 kts 261°
2026-04-27 15:17 -10.18821 155.61419 15852 ft 276 kts 261°
2026-04-27 15:17 -10.19173 155.59509 15854 ft 276 kts 261°
2026-04-27 15:18 -10.19527 155.57594 15855 ft 276 kts 261°
2026-04-27 15:18 -10.19879 155.55684 15856 ft 276 kts 261°
2026-04-27 15:18 -10.20232 155.53767 15854 ft 276 kts 260°
2026-04-27 15:18 -10.20580 155.51876 15855 ft 276 kts 260°
2026-04-27 15:19 -10.20936 155.49940 15854 ft 276 kts 260°
2026-04-27 15:19 -10.21285 155.48049 15855 ft 276 kts 260°
2026-04-27 15:19 -10.21641 155.46112 15854 ft 276 kts 260°
2026-04-27 15:19 -10.21988 155.44220 15855 ft 276 kts 260°
2026-04-27 15:20 -10.22341 155.42302 15854 ft 276 kts 261°
2026-04-27 15:20 -10.22692 155.40391 15854 ft 276 kts 261°
2026-04-27 15:20 -10.23044 155.38473 15855 ft 276 kts 260°
2026-04-27 15:20 -10.23396 155.36556 15853 ft 276 kts 260°
2026-04-27 15:21 -10.23747 155.34645 15855 ft 276 kts 261°
2026-04-27 15:21 -10.24099 155.32729 15857 ft 276 kts 261°
2026-04-27 15:21 -10.24449 155.30819 15856 ft 276 kts 261°
2026-04-27 15:21 -10.24801 155.28902 15859 ft 276 kts 261°
2026-04-27 15:22 -10.25152 155.26985 15858 ft 276 kts 261°
2026-04-27 15:22 -10.25502 155.25074 15857 ft 276 kts 261°
2026-04-27 15:22 -10.25853 155.23157 15859 ft 276 kts 261°
2026-04-27 15:22 -10.26204 155.21239 15855 ft 276 kts 261°
2026-04-27 15:23 -10.26555 155.19327 15859 ft 276 kts 261°
2026-04-27 15:23 -10.26906 155.17408 15857 ft 276 kts 261°
2026-04-27 15:23 -10.27256 155.15489 15859 ft 276 kts 261°
2026-04-27 15:23 -10.27607 155.13570 15860 ft 276 kts 261°
2026-04-27 15:24 -10.27958 155.11652 15859 ft 276 kts 261°
2026-04-27 15:24 -10.28307 155.09741 15860 ft 276 kts 261°
2026-04-27 15:24 -10.28656 155.07831 15858 ft 276 kts 261°
2026-04-27 15:24 -10.29006 155.05914 15855 ft 276 kts 261°
2026-04-27 15:25 -10.29356 155.04003 15856 ft 276 kts 261°
2026-04-27 15:25 -10.29706 155.02086 15857 ft 276 kts 261°
2026-04-27 15:25 -10.30055 155.00168 15858 ft 276 kts 261°
2026-04-27 15:25 -10.30404 154.98256 15855 ft 276 kts 261°
2026-04-27 15:26 -10.30753 154.96339 15857 ft 276 kts 261°
2026-04-27 15:26 -10.31102 154.94422 15859 ft 276 kts 261°
2026-04-27 15:26 -10.31451 154.92510 15857 ft 276 kts 261°
2026-04-27 15:26 -10.31800 154.90592 15860 ft 276 kts 261°
2026-04-27 15:27 -10.32148 154.88680 15857 ft 276 kts 261°
2026-04-27 15:27 -10.32498 154.86761 15859 ft 276 kts 261°
2026-04-27 15:27 -10.32847 154.84842 15857 ft 276 kts 261°
2026-04-27 15:27 -10.33194 154.82929 15856 ft 276 kts 261°
2026-04-27 15:28 -10.33544 154.81011 15856 ft 276 kts 261°
2026-04-27 15:28 -10.33893 154.79092 15858 ft 276 kts 261°
2026-04-27 15:28 -10.34240 154.77180 15857 ft 276 kts 261°
2026-04-27 15:28 -10.34588 154.75261 15857 ft 276 kts 261°
2026-04-27 15:29 -10.34935 154.73349 15860 ft 276 kts 261°
2026-04-27 15:29 -10.35284 154.71427 15860 ft 276 kts 261°
2026-04-27 15:29 -10.35631 154.69526 15976 ft 272 kts 261°
2026-04-27 15:29 -10.35974 154.67636 15991 ft 273 kts 261°
2026-04-27 15:30 -10.36316 154.65736 15994 ft 274 kts 261°
2026-04-27 15:30 -10.36655 154.63863 15992 ft 275 kts 261°
2026-04-27 15:30 -10.37007 154.61923 15989 ft 275 kts 261°
2026-04-27 15:30 -10.37353 154.60011 15989 ft 275 kts 261°
2026-04-27 15:31 -10.37700 154.58098 15989 ft 276 kts 261°
2026-04-27 15:31 -10.38046 154.56184 15988 ft 276 kts 261°
2026-04-27 15:31 -10.38388 154.54294 15987 ft 276 kts 261°
2026-04-27 15:31 -10.38740 154.52353 15991 ft 276 kts 261°
2026-04-27 15:32 -10.39086 154.50433 15990 ft 276 kts 261°
2026-04-27 15:32 -10.39427 154.48543 15990 ft 276 kts 261°
2026-04-27 15:32 -10.39773 154.46628 15993 ft 276 kts 261°
2026-04-27 15:32 -10.40121 154.44712 15992 ft 276 kts 261°
2026-04-27 15:33 -10.40467 154.42796 15994 ft 276 kts 261°
2026-04-27 15:33 -10.40810 154.40880 15992 ft 276 kts 261°
2026-04-27 15:33 -10.41155 154.38966 15993 ft 276 kts 261°
2026-04-27 15:33 -10.41503 154.37051 15995 ft 275 kts 261°
2026-04-27 15:34 -10.41847 154.35141 15990 ft 275 kts 261°
2026-04-27 15:34 -10.42191 154.33224 15992 ft 275 kts 261°
2026-04-27 15:34 -10.42536 154.31312 15992 ft 275 kts 261°
2026-04-27 15:34 -10.42882 154.29400 15991 ft 275 kts 261°
2026-04-27 15:35 -10.43226 154.27489 15990 ft 275 kts 261°
2026-04-27 15:35 -10.43568 154.25581 15992 ft 275 kts 261°
2026-04-27 15:35 -10.43911 154.23670 15990 ft 275 kts 261°
2026-04-27 15:35 -10.44256 154.21761 15988 ft 275 kts 261°
2026-04-27 15:36 -10.44599 154.19854 15991 ft 275 kts 261°
2026-04-27 15:36 -10.44940 154.17948 15993 ft 274 kts 261°
2026-04-27 15:36 -10.45283 154.16041 15995 ft 274 kts 261°
2026-04-27 15:36 -10.45625 154.14136 15995 ft 274 kts 261°
2026-04-27 15:37 -10.45968 154.12231 15992 ft 274 kts 261°
2026-04-27 15:37 -10.46308 154.10329 15993 ft 274 kts 261°
2026-04-27 15:37 -10.46649 154.08430 15995 ft 274 kts 261°
2026-04-27 15:37 -10.46992 154.06525 16000 ft 274 kts 261°
2026-04-27 15:38 -10.47333 154.04621 15994 ft 274 kts 261°
2026-04-27 15:38 -10.47673 154.02725 15992 ft 273 kts 261°
2026-04-27 15:38 -10.48013 154.00823 15994 ft 273 kts 261°
2026-04-27 15:38 -10.48352 153.98928 15995 ft 273 kts 261°
2026-04-27 15:39 -10.48692 153.97027 15997 ft 273 kts 261°
2026-04-27 15:39 -10.48918 153.95772 15991 ft 273 kts 261°
2026-04-27 15:39 -10.49258 153.93874 15992 ft 273 kts 262°
2026-04-27 15:39 -10.49595 153.91983 15994 ft 273 kts 261°
2026-04-27 15:40 -10.49934 153.90087 15992 ft 272 kts 261°
2026-04-27 15:40 -10.50274 153.88191 15994 ft 272 kts 261°
2026-04-27 15:40 -10.50721 153.85683 15992 ft 273 kts 262°
2026-04-27 15:40 -10.50949 153.84405 15997 ft 272 kts 261°
2026-04-27 15:41 -10.51288 153.82514 16000 ft 272 kts 261°
2026-04-27 15:41 -10.51626 153.80617 15998 ft 273 kts 262°
2026-04-27 15:41 -10.51964 153.78720 15999 ft 272 kts 262°
2026-04-27 15:41 -10.52302 153.76831 15994 ft 272 kts 261°
2026-04-27 15:42 -10.52640 153.74936 15994 ft 272 kts 262°
2026-04-27 15:42 -10.52974 153.73048 15998 ft 272 kts 262°
2026-04-27 15:42 -10.53312 153.71154 15997 ft 272 kts 261°
2026-04-27 15:42 -10.53650 153.69261 15998 ft 272 kts 262°
2026-04-27 15:43 -10.53986 153.67375 15996 ft 272 kts 261°
2026-04-27 15:43 -10.54322 153.65482 15995 ft 272 kts 261°
2026-04-27 15:43 -10.54659 153.63590 15999 ft 272 kts 262°
2026-04-27 15:43 -10.54994 153.61705 15998 ft 271 kts 262°
2026-04-27 15:44 -10.55325 153.59841 15997 ft 271 kts 262°
2026-04-27 15:44 -10.55661 153.57953 15998 ft 271 kts 261°
2026-04-27 15:44 -10.55995 153.56069 15997 ft 272 kts 261°
2026-04-27 15:44 -10.56332 153.54179 15995 ft 272 kts 262°
2026-04-27 15:45 -10.56666 153.52294 15996 ft 272 kts 262°
2026-04-27 15:45 -10.57001 153.50404 15997 ft 271 kts 261°
2026-04-27 15:45 -10.57336 153.48520 15996 ft 271 kts 261°
2026-04-27 15:45 -10.57671 153.46632 15999 ft 271 kts 261°
2026-04-27 15:46 -10.58006 153.44743 15995 ft 271 kts 262°
2026-04-27 15:46 -10.58338 153.42861 15997 ft 271 kts 262°
2026-04-27 15:46 -10.58673 153.40974 15995 ft 271 kts 261°
2026-04-27 15:46 -10.59007 153.39090 15996 ft 271 kts 262°
2026-04-27 15:47 -10.59339 153.37213 15998 ft 270 kts 262°
2026-04-27 15:47 -10.59672 153.35329 15998 ft 270 kts 262°
2026-04-27 15:47 -10.60005 153.33452 15996 ft 270 kts 262°
2026-04-27 15:47 -10.60338 153.31568 15997 ft 270 kts 262°
2026-04-27 15:48 -10.60672 153.29685 15996 ft 270 kts 262°
2026-04-27 15:48 -10.61003 153.27807 15997 ft 270 kts 262°
2026-04-27 15:48 -10.61335 153.25923 15996 ft 271 kts 262°
2026-04-27 15:49 -10.61999 153.22162 15997 ft 270 kts 262°
2026-04-27 15:49 -10.62332 153.20277 15997 ft 271 kts 262°
2026-04-27 15:49 -10.62664 153.18399 15995 ft 271 kts 262°
2026-04-27 15:49 -10.62996 153.16515 15995 ft 271 kts 261°
2026-04-27 15:50 -10.63328 153.14630 15997 ft 270 kts 261°
2026-04-27 15:50 -10.63658 153.12752 15996 ft 270 kts 262°
2026-04-27 15:50 -10.63989 153.10869 15996 ft 270 kts 262°
2026-04-27 15:50 -10.64321 153.08994 15995 ft 270 kts 261°
2026-04-27 15:51 -10.64653 153.07112 15996 ft 270 kts 261°
2026-04-27 15:51 -10.64983 153.05231 15996 ft 270 kts 261°
2026-04-27 15:51 -10.65313 153.03351 15997 ft 270 kts 261°
2026-04-27 15:51 -10.65644 153.01472 15999 ft 270 kts 261°
2026-04-27 15:52 -10.65973 152.99597 15999 ft 270 kts 261°
2026-04-27 15:52 -10.66300 152.97740 15998 ft 270 kts 261°
2026-04-27 15:52 -10.66635 152.95833 15998 ft 270 kts 262°
2026-04-27 15:52 -10.66959 152.93981 15999 ft 270 kts 261°
2026-04-27 15:53 -10.67289 152.92099 16000 ft 270 kts 262°
2026-04-27 15:53 -10.67619 152.90223 16002 ft 270 kts 261°
2026-04-27 15:53 -10.67949 152.88341 16001 ft 270 kts 262°
2026-04-27 15:53 -10.68278 152.86465 16003 ft 270 kts 261°
2026-04-27 15:54 -10.68608 152.84583 16002 ft 270 kts 261°
2026-04-27 15:54 -10.68901 152.82692 16003 ft 270 kts 265°
2026-04-27 15:54 -10.69103 152.80797 16007 ft 270 kts 265°
2026-04-27 15:54 -10.69319 152.78897 16008 ft 270 kts 264°
2026-04-27 15:55 -10.69547 152.76969 16009 ft 271 kts 264°
2026-04-27 15:55 -10.69693 152.75708 16002 ft 271 kts 264°
2026-04-27 15:55 -10.69978 152.73191 16001 ft 271 kts 265°
2026-04-27 15:55 -10.70196 152.71289 16001 ft 271 kts 265°
2026-04-27 15:56 -10.70413 152.69392 16000 ft 271 kts 265°
2026-04-27 15:56 -10.70630 152.67489 16000 ft 270 kts 265°
2026-04-27 15:56 -10.70846 152.65595 16002 ft 270 kts 265°
2026-04-27 15:56 -10.71063 152.63696 16002 ft 270 kts 265°
2026-04-27 15:57 -10.71279 152.61798 16001 ft 270 kts 265°
2026-04-27 15:57 -10.71496 152.59901 16004 ft 270 kts 265°
2026-04-27 15:57 -10.71711 152.58011 16003 ft 270 kts 265°
2026-04-27 15:57 -10.71927 152.56115 16001 ft 270 kts 265°
2026-04-27 15:58 -10.72141 152.54226 16002 ft 270 kts 265°
2026-04-27 15:58 -10.72357 152.52330 16006 ft 269 kts 265°
2026-04-27 15:58 -10.72572 152.50436 16006 ft 269 kts 265°
2026-04-27 15:58 -10.72786 152.48548 16006 ft 269 kts 265°
2026-04-27 15:59 -10.73002 152.46655 16004 ft 269 kts 265°
2026-04-27 15:59 -10.73216 152.44761 16003 ft 269 kts 265°
2026-04-27 15:59 -10.73430 152.42874 16002 ft 269 kts 265°
2026-04-27 15:59 -10.73644 152.40982 16001 ft 269 kts 265°
2026-04-27 16:00 -10.73858 152.39097 16004 ft 269 kts 265°
2026-04-27 16:00 -10.73999 152.37847 16003 ft 269 kts 265°
2026-04-27 16:00 -10.74285 152.35316 16006 ft 269 kts 265°
2026-04-27 16:00 -10.74499 152.33433 16005 ft 269 kts 265°
2026-04-27 16:01 -10.74712 152.31543 16006 ft 269 kts 265°
2026-04-27 16:01 -10.74925 152.29654 16008 ft 268 kts 265°
2026-04-27 16:01 -10.75138 152.27772 16005 ft 268 kts 265°
2026-04-27 16:01 -10.75350 152.25886 16001 ft 268 kts 265°
2026-04-27 16:02 -10.75562 152.24009 16008 ft 268 kts 265°
2026-04-27 16:02 -10.75774 152.22125 16008 ft 268 kts 265°
2026-04-27 16:02 -10.75986 152.20243 16008 ft 267 kts 265°
2026-04-27 16:02 -10.76197 152.18367 16008 ft 268 kts 265°
2026-04-27 16:03 -10.76409 152.16485 16003 ft 268 kts 265°
2026-04-27 16:03 -10.76620 152.14610 16006 ft 267 kts 265°
2026-04-27 16:03 -10.76831 152.12728 16008 ft 268 kts 265°
2026-04-27 16:03 -10.77043 152.10847 16008 ft 267 kts 265°
2026-04-27 16:04 -10.77251 152.08990 16008 ft 268 kts 265°
2026-04-27 16:04 -10.77464 152.07088 16011 ft 268 kts 265°
2026-04-27 16:04 -10.77673 152.05229 16011 ft 268 kts 265°
2026-04-27 16:04 -10.77886 152.03325 16011 ft 268 kts 265°
2026-04-27 16:05 -10.78097 152.01440 16011 ft 268 kts 265°
2026-04-27 16:05 -10.78305 151.99581 16009 ft 268 kts 265°
2026-04-27 16:05 -10.78518 151.97679 16012 ft 268 kts 265°
2026-04-27 16:05 -10.78726 151.95821 16012 ft 268 kts 265°
2026-04-27 16:06 -10.78939 151.93912 16012 ft 268 kts 265°
2026-04-27 16:06 -10.79149 151.92036 16013 ft 268 kts 265°
2026-04-27 16:06 -10.79356 151.90178 16013 ft 268 kts 265°
2026-04-27 16:06 -10.79568 151.88276 16010 ft 268 kts 265°
2026-04-27 16:07 -10.79776 151.86418 16012 ft 268 kts 265°
2026-04-27 16:07 -10.79986 151.84535 16013 ft 268 kts 265°
2026-04-27 16:07 -10.80194 151.82659 16010 ft 267 kts 265°
2026-04-27 16:07 -10.80404 151.80777 16013 ft 267 kts 265°
2026-04-27 16:08 -10.80613 151.78902 16010 ft 267 kts 265°
2026-04-27 16:08 -10.80822 151.77019 16009 ft 268 kts 265°
2026-04-27 16:08 -10.81032 151.75136 16010 ft 268 kts 265°
2026-04-27 16:08 -10.81240 151.73258 16009 ft 268 kts 265°
2026-04-27 16:09 -10.81449 151.71374 16012 ft 268 kts 265°
2026-04-27 16:09 -10.81867 151.67609 16013 ft 268 kts 265°
2026-04-27 16:09 -10.82076 151.65724 16013 ft 268 kts 265°
2026-04-27 16:10 -10.82493 151.61958 16013 ft 268 kts 265°
2026-04-27 16:10 -10.82909 151.58190 16012 ft 268 kts 265°
2026-04-27 16:11 -10.83115 151.56327 16015 ft 268 kts 265°
2026-04-27 16:11 -10.83532 151.52557 16011 ft 268 kts 265°
2026-04-27 16:12 -10.83948 151.48782 16013 ft 269 kts 265°
2026-04-27 16:12 -10.84158 151.46873 16013 ft 269 kts 265°
2026-04-27 16:12 -10.84572 151.43116 16014 ft 269 kts 265°
2026-04-27 16:13 -10.84782 151.41206 16015 ft 269 kts 265°
2026-04-27 16:13 -10.85197 151.37428 16015 ft 269 kts 265°
2026-04-27 16:13 -10.85402 151.35561 16016 ft 269 kts 265°
2026-04-27 16:14 -10.85817 151.31784 16015 ft 269 kts 265°
2026-04-27 16:14 -10.86231 151.28005 16017 ft 269 kts 265°
2026-04-27 16:15 -10.86646 151.24219 16014 ft 269 kts 265°
2026-04-27 16:15 -10.87059 151.20438 16016 ft 269 kts 265°
2026-04-27 16:16 -10.87472 151.16656 16014 ft 269 kts 265°
2026-04-27 16:16 -10.87885 151.12869 16016 ft 269 kts 265°
2026-04-27 16:17 -10.88297 151.09096 16019 ft 269 kts 265°
2026-04-27 16:17 -10.88709 151.05309 16017 ft 269 kts 265°
2026-04-27 16:18 -10.89120 151.01528 16020 ft 269 kts 265°
2026-04-27 16:18 -10.89531 150.97747 16020 ft 269 kts 265°
2026-04-27 16:19 -10.89736 150.95854 16019 ft 269 kts 265°
2026-04-27 16:19 -10.89939 150.93985 16017 ft 269 kts 265°
2026-04-27 16:20 -10.90553 150.88317 16022 ft 269 kts 265°
2026-04-27 16:20 -10.90758 150.86422 16020 ft 269 kts 265°
2026-04-27 16:20 -10.91167 150.82631 16021 ft 269 kts 265°
2026-04-27 16:21 -10.91372 150.80740 16020 ft 269 kts 265°
2026-04-27 16:21 -10.91985 150.75061 16023 ft 269 kts 265°
2026-04-27 16:22 -10.92189 150.73167 16020 ft 269 kts 265°
2026-04-27 16:22 -10.92596 150.69377 16017 ft 269 kts 265°
2026-04-27 16:22 -10.92800 150.67482 16018 ft 270 kts 265°
2026-04-27 16:23 -10.93004 150.65587 16021 ft 269 kts 265°
2026-04-27 16:23 -10.93411 150.61797 16023 ft 269 kts 265°
2026-04-27 16:23 -10.93614 150.59905 16020 ft 269 kts 265°
2026-04-27 16:24 -10.93817 150.58011 16021 ft 269 kts 265°
2026-04-27 16:24 -10.94223 150.54226 16020 ft 269 kts 265°
2026-04-27 16:25 -10.94628 150.50438 16021 ft 269 kts 265°
2026-04-27 16:25 -10.95033 150.46653 16023 ft 269 kts 265°
2026-04-27 16:26 -10.95437 150.42865 16026 ft 269 kts 265°
2026-04-27 16:26 -10.95841 150.39078 16025 ft 269 kts 265°
2026-04-27 16:27 -10.96177 150.35931 16026 ft 269 kts 265°
2026-04-27 16:27 -10.96847 150.29631 16027 ft 269 kts 265°
2026-04-27 16:28 -10.97213 150.25837 16025 ft 269 kts 266°
2026-04-27 16:28 -10.97415 150.22652 16027 ft 269 kts 268°
2026-04-27 16:29 -10.97522 150.16940 16026 ft 269 kts 271°
2026-04-27 16:30 -10.97413 150.13159 16025 ft 269 kts 274°
2026-04-27 16:30 -10.97158 150.09336 16030 ft 269 kts 276°
2026-04-27 16:31 -10.96505 150.03664 16031 ft 269 kts 279°
2026-04-27 16:31 -10.95891 149.99908 16030 ft 269 kts 281°
2026-04-27 16:32 -10.95137 149.96206 16029 ft 269 kts 283°
2026-04-27 16:32 -10.94699 149.94330 16028 ft 269 kts 284°
2026-04-27 16:33 -10.93725 149.90657 16029 ft 269 kts 286°
2026-04-27 16:33 -10.93192 149.88856 16033 ft 269 kts 287°
2026-04-27 16:33 -10.92609 149.87023 16032 ft 269 kts 288°
2026-04-27 16:33 -10.91999 149.85227 16032 ft 269 kts 290°
2026-04-27 16:34 -10.91352 149.83438 16033 ft 269 kts 290°
2026-04-27 16:34 -10.90681 149.81690 16032 ft 269 kts 291°
2026-04-27 16:34 -10.89966 149.79930 16032 ft 269 kts 292°
2026-04-27 16:34 -10.89216 149.78186 16032 ft 269 kts 294°
2026-04-27 16:35 -10.88433 149.76456 16032 ft 269 kts 295°
2026-04-27 16:35 -10.87615 149.74740 16029 ft 270 kts 296°
2026-04-27 16:35 -10.85880 149.71359 16031 ft 270 kts 298°
2026-04-27 16:36 -10.84963 149.69694 16030 ft 270 kts 299°
2026-04-27 16:36 -10.84014 149.68050 16031 ft 270 kts 300°
2026-04-27 16:36 -10.83032 149.66422 16027 ft 270 kts 301°
2026-04-27 16:36 -10.82018 149.64816 16030 ft 270 kts 302°
2026-04-27 16:37 -10.80973 149.63228 16029 ft 270 kts 303°
2026-04-27 16:37 -10.79895 149.61658 16034 ft 270 kts 304°
2026-04-27 16:37 -10.79059 149.59968 16025 ft 269 kts 287°
2026-04-27 16:37 -10.78636 149.58115 16026 ft 269 kts 282°
2026-04-27 16:38 -10.78283 149.56250 16026 ft 269 kts 281°
2026-04-27 16:38 -10.77873 149.54391 16027 ft 269 kts 284°
2026-04-27 16:38 -10.77382 149.52553 16029 ft 269 kts 285°
2026-04-27 16:38 -10.76897 149.50717 16025 ft 269 kts 285°
2026-04-27 16:39 -10.76434 149.48877 16022 ft 269 kts 284°
2026-04-27 16:39 -10.75970 149.47032 16026 ft 269 kts 284°
2026-04-27 16:39 -10.75502 149.45190 16023 ft 269 kts 285°
2026-04-27 16:39 -10.75031 149.43347 16022 ft 269 kts 284°
2026-04-27 16:40 -10.74563 149.41506 16028 ft 269 kts 284°
2026-04-27 16:40 -10.74095 149.39666 16027 ft 269 kts 285°
2026-04-27 16:40 -10.73626 149.37825 16027 ft 269 kts 285°
2026-04-27 16:40 -10.73158 149.35984 16027 ft 269 kts 285°
2026-04-27 16:41 -10.72689 149.34143 16028 ft 269 kts 285°
2026-04-27 16:41 -10.72220 149.32301 16027 ft 269 kts 285°
2026-04-27 16:41 -10.71751 149.30463 16027 ft 269 kts 285°
2026-04-27 16:41 -10.71281 149.28618 16025 ft 269 kts 284°
2026-04-27 16:42 -10.70813 149.26780 16029 ft 269 kts 285°
2026-04-27 16:42 -10.70343 149.24936 16029 ft 269 kts 285°
2026-04-27 16:42 -10.69873 149.23094 16025 ft 269 kts 285°
2026-04-27 16:42 -10.69398 149.21255 16027 ft 269 kts 285°
2026-04-27 16:43 -10.68925 149.19417 16020 ft 269 kts 282°
2026-04-27 16:43 -10.68940 149.17528 16027 ft 269 kts 261°
2026-04-27 16:43 -10.69349 149.15670 16030 ft 270 kts 259°
2026-04-27 16:43 -10.69657 149.13789 16037 ft 269 kts 265°
2026-04-27 16:44 -10.69758 149.11896 16044 ft 269 kts 271°
2026-04-27 16:44 -10.69598 149.10004 16049 ft 269 kts 281°
2026-04-27 16:44 -10.69127 149.08195 16048 ft 269 kts 288°
2026-04-27 16:44 -10.68541 149.06390 16046 ft 269 kts 287°
2026-04-27 16:45 -10.68025 149.04565 16042 ft 269 kts 285°
2026-04-27 16:45 -10.67544 149.02726 16042 ft 269 kts 285°
2026-04-27 16:45 -10.67048 149.00894 16040 ft 269 kts 286°
2026-04-27 16:45 -10.66539 148.99062 16040 ft 269 kts 286°
2026-04-27 16:46 -10.66034 148.97225 16038 ft 269 kts 286°
2026-04-27 16:46 -10.65531 148.95390 16036 ft 269 kts 286°
2026-04-27 16:46 -10.65032 148.93571 16036 ft 270 kts 286°
2026-04-27 16:46 -10.64508 148.91738 16034 ft 270 kts 287°
2026-04-27 16:47 -10.63949 148.89918 16036 ft 270 kts 288°
2026-04-27 16:47 -10.63354 148.88111 16039 ft 270 kts 289°
2026-04-27 16:47 -10.62724 148.86314 16038 ft 270 kts 290°
2026-04-27 16:47 -10.62060 148.84534 16038 ft 270 kts 291°
2026-04-27 16:48 -10.61360 148.82764 16040 ft 270 kts 292°
2026-04-27 16:48 -10.60626 148.81010 16036 ft 270 kts 293°
2026-04-27 16:48 -10.59858 148.79270 16037 ft 270 kts 294°
2026-04-27 16:49 -10.58328 148.75794 16024 ft 269 kts 287°
2026-04-27 16:49 -10.57891 148.73941 16027 ft 269 kts 282°
2026-04-27 16:49 -10.57517 148.72105 16026 ft 269 kts 283°
2026-04-27 16:49 -10.57056 148.70259 16029 ft 269 kts 285°
2026-04-27 16:50 -10.56541 148.68404 16028 ft 269 kts 286°
2026-04-27 16:50 -10.56058 148.66593 16026 ft 269 kts 285°
2026-04-27 16:50 -10.55580 148.64752 16026 ft 269 kts 285°
2026-04-27 16:50 -10.55105 148.62913 16029 ft 269 kts 285°
2026-04-27 16:51 -10.54603 148.61082 16028 ft 269 kts 286°
2026-04-27 16:51 -10.54109 148.59246 16027 ft 269 kts 285°
2026-04-27 16:51 -10.53630 148.57407 16027 ft 269 kts 285°
2026-04-27 16:51 -10.53150 148.55572 16025 ft 269 kts 285°
2026-04-27 16:52 -10.52667 148.53734 16026 ft 269 kts 285°
2026-04-27 16:52 -10.52183 148.51897 16028 ft 269 kts 285°
2026-04-27 16:52 -10.51701 148.50064 16026 ft 269 kts 285°
2026-04-27 16:52 -10.51217 148.48225 16026 ft 269 kts 285°
2026-04-27 16:53 -10.50734 148.46389 16027 ft 269 kts 285°
2026-04-27 16:53 -10.50251 148.44555 16027 ft 269 kts 285°
2026-04-27 16:53 -10.49768 148.42718 16026 ft 269 kts 285°
2026-04-27 16:53 -10.49285 148.40885 16025 ft 269 kts 285°
2026-04-27 16:54 -10.48801 148.39049 16025 ft 269 kts 285°
2026-04-27 16:54 -10.48318 148.37213 16022 ft 269 kts 285°
2026-04-27 16:54 -10.47834 148.35377 16023 ft 269 kts 285°
2026-04-27 16:54 -10.47350 148.33543 16023 ft 269 kts 285°
2026-04-27 16:55 -10.46866 148.31707 16022 ft 269 kts 285°
2026-04-27 16:55 -10.46382 148.29870 16024 ft 269 kts 285°
2026-04-27 16:55 -10.45898 148.28036 16023 ft 269 kts 285°
2026-04-27 16:55 -10.45414 148.26201 16024 ft 269 kts 285°
2026-04-27 16:56 -10.44931 148.24369 16025 ft 269 kts 285°
2026-04-27 16:56 -10.44447 148.22535 16023 ft 269 kts 285°
2026-04-27 16:56 -10.43963 148.20703 16024 ft 269 kts 285°
2026-04-27 16:56 -10.43479 148.18871 16024 ft 269 kts 285°
2026-04-27 16:57 -10.42995 148.17038 16020 ft 269 kts 285°
2026-04-27 16:57 -10.42510 148.15205 16020 ft 269 kts 285°
2026-04-27 16:57 -10.42026 148.13374 16020 ft 269 kts 285°
2026-04-27 16:57 -10.41542 148.11540 16023 ft 269 kts 285°
2026-04-27 16:58 -10.41057 148.09707 16019 ft 269 kts 285°
2026-04-27 16:58 -10.40573 148.07875 16023 ft 268 kts 285°
2026-04-27 16:58 -10.40088 148.06044 16021 ft 268 kts 285°
2026-04-27 16:58 -10.39604 148.04215 16021 ft 268 kts 285°
2026-04-27 16:59 -10.39119 148.02382 16022 ft 268 kts 285°
2026-04-27 16:59 -10.38635 148.00554 16022 ft 269 kts 285°
2026-04-27 16:59 -10.38150 147.98722 16021 ft 268 kts 285°
2026-04-27 16:59 -10.37672 147.96916 16024 ft 268 kts 285°
2026-04-27 17:00 -10.36860 147.93854 16023 ft 268 kts 285°
2026-04-27 17:00 -10.36217 147.91426 16023 ft 268 kts 285°
2026-04-27 17:00 -10.35731 147.89594 16023 ft 268 kts 285°
2026-04-27 17:01 -10.35247 147.87767 16021 ft 268 kts 285°
2026-04-27 17:01 -10.34761 147.85935 16024 ft 268 kts 285°
2026-04-27 17:01 -10.34275 147.84108 16024 ft 268 kts 285°
2026-04-27 17:01 -10.33790 147.82278 16022 ft 268 kts 285°
2026-04-27 17:02 -10.33304 147.80448 16018 ft 268 kts 285°
2026-04-27 17:02 -10.32820 147.78623 16024 ft 268 kts 285°
2026-04-27 17:02 -10.32334 147.76794 16027 ft 268 kts 285°
2026-04-27 17:02 -10.31848 147.74966 16022 ft 268 kts 285°
2026-04-27 17:03 -10.31364 147.73142 16018 ft 268 kts 285°
2026-04-27 17:03 -10.30879 147.71318 16025 ft 267 kts 285°
2026-04-27 17:03 -10.30394 147.69496 16023 ft 267 kts 285°
2026-04-27 17:03 -10.29909 147.67673 16024 ft 267 kts 285°
2026-04-27 17:04 -10.29425 147.65850 16028 ft 267 kts 285°
2026-04-27 17:04 -10.28939 147.64027 16025 ft 268 kts 285°
2026-04-27 17:04 -10.28454 147.62202 16024 ft 268 kts 285°
2026-04-27 17:04 -10.27968 147.60377 16020 ft 267 kts 285°
2026-04-27 17:05 -10.27483 147.58555 16018 ft 267 kts 285°
2026-04-27 17:05 -10.26998 147.56735 16019 ft 268 kts 285°
2026-04-27 17:05 -10.26512 147.54912 16021 ft 267 kts 285°
2026-04-27 17:05 -10.26191 147.53706 16018 ft 267 kts 285°
2026-04-27 17:06 -10.25543 147.51269 16018 ft 267 kts 285°
2026-04-27 17:06 -10.25031 147.49456 16025 ft 267 kts 290°
2026-04-27 17:06 -10.24180 147.47788 16038 ft 266 kts 303°
2026-04-27 17:06 -10.23005 147.46365 16035 ft 260 kts 314°
2026-04-27 17:07 -10.21575 147.45247 15732 ft 260 kts 327°
2026-04-27 17:07 -10.19945 147.44455 15360 ft 259 kts 335°
2026-04-27 17:07 -10.18299 147.43740 14986 ft 257 kts 334°
2026-04-27 17:07 -10.16666 147.43010 14614 ft 255 kts 334°
2026-04-27 17:08 -10.15045 147.42296 14248 ft 253 kts 335°
2026-04-27 17:08 -10.13432 147.41590 13886 ft 252 kts 335°
2026-04-27 17:08 -10.11827 147.40885 13504 ft 250 kts 335°
2026-04-27 17:08 -10.10238 147.40185 13091 ft 248 kts 334°
2026-04-27 17:09 -10.08654 147.39489 12693 ft 248 kts 335°
2026-04-27 17:09 -10.07075 147.38795 12296 ft 247 kts 335°
2026-04-27 17:09 -10.05502 147.38104 11904 ft 246 kts 335°
2026-04-27 17:09 -10.03933 147.37415 11518 ft 244 kts 335°
2026-04-27 17:10 -10.02420 147.36750 11131 ft 233 kts 335°
2026-04-27 17:10 -10.00951 147.36101 10747 ft 228 kts 335°
2026-04-27 17:10 -9.99501 147.35463 10370 ft 226 kts 335°
2026-04-27 17:10 -9.98057 147.34830 9996 ft 226 kts 336°
2026-04-27 17:11 -9.96620 147.34197 9613 ft 225 kts 335°
2026-04-27 17:11 -9.93758 147.32943 8816 ft 226 kts 336°
2026-04-27 17:11 -9.92303 147.32304 8418 ft 224 kts 336°
2026-04-27 17:12 -9.89474 147.31061 7644 ft 222 kts 337°
2026-04-27 17:12 -9.88056 147.30439 7261 ft 221 kts 337°
2026-04-27 17:12 -9.86650 147.29822 6885 ft 220 kts 338°
2026-04-27 17:13 -9.85251 147.29208 6518 ft 219 kts 338°
2026-04-27 17:13 -9.83857 147.28596 6135 ft 218 kts 338°
2026-04-27 17:13 -9.82494 147.27995 6025 ft 207 kts 338°
2026-04-27 17:13 -9.81204 147.27425 6014 ft 199 kts 338°
2026-04-27 17:14 -9.79954 147.26876 6013 ft 194 kts 338°
2026-04-27 17:14 -9.78722 147.26336 6015 ft 192 kts 338°
2026-04-27 17:14 -9.77502 147.25802 6012 ft 190 kts 338°
2026-04-27 17:14 -9.76292 147.25270 6019 ft 189 kts 338°
2026-04-27 17:15 -9.75086 147.24742 6015 ft 189 kts 338°
2026-04-27 17:15 -9.74286 147.24391 6013 ft 189 kts 338°
2026-04-27 17:15 -9.73080 147.23862 6012 ft 189 kts 338°
2026-04-27 17:15 -9.71871 147.23332 6013 ft 189 kts 338°
2026-04-27 17:16 -9.70662 147.22803 6010 ft 189 kts 338°
2026-04-27 17:16 -9.69455 147.22273 6014 ft 189 kts 338°
2026-04-27 17:16 -9.68248 147.21744 6010 ft 189 kts 338°
2026-04-27 17:16 -9.67044 147.21216 6010 ft 188 kts 338°
2026-04-27 17:17 -9.65841 147.20688 6009 ft 188 kts 338°
2026-04-27 17:17 -9.64639 147.20162 6010 ft 188 kts 338°
2026-04-27 17:17 -9.63437 147.19635 6010 ft 188 kts 338°
2026-04-27 17:18 -9.61027 147.18579 6009 ft 189 kts 337°
2026-04-27 17:18 -9.59822 147.18051 6008 ft 189 kts 337°
2026-04-27 17:18 -9.58618 147.17524 6007 ft 188 kts 337°
2026-04-27 17:18 -9.57417 147.16998 6014 ft 188 kts 337°
2026-04-27 17:19 -9.56217 147.16472 6011 ft 188 kts 337°
2026-04-27 17:19 -9.55015 147.15946 6010 ft 188 kts 337°
2026-04-27 17:19 -9.53813 147.15419 6004 ft 189 kts 337°
2026-04-27 17:19 -9.52608 147.14891 6007 ft 188 kts 337°
2026-04-27 17:20 -9.51404 147.14365 6006 ft 188 kts 337°
2026-04-27 17:20 -9.50203 147.13839 6006 ft 188 kts 337°
2026-04-27 17:20 -9.49044 147.13230 6006 ft 188 kts 328°
2026-04-27 17:20 -9.47936 147.12529 6005 ft 188 kts 329°
2026-04-27 17:21 -9.46823 147.11840 6006 ft 188 kts 329°
2026-04-27 17:21 -9.45706 147.11152 6007 ft 188 kts 329°
2026-04-27 17:21 -9.44591 147.10465 6005 ft 188 kts 329°
2026-04-27 17:21 -9.43486 147.09783 6007 ft 188 kts 329°
2026-04-27 17:22 -9.42370 147.09095 6003 ft 188 kts 329°
2026-04-27 17:22 -9.41242 147.08398 6007 ft 188 kts 329°
2026-04-27 17:22 -9.40125 147.07709 6004 ft 188 kts 329°
2026-04-27 17:22 -9.39010 147.07021 6007 ft 188 kts 329°
2026-04-27 17:23 -9.37911 147.06343 6007 ft 188 kts 329°
2026-04-27 17:23 -9.36793 147.05654 6003 ft 188 kts 329°
2026-04-27 17:23 -9.35677 147.04965 6005 ft 188 kts 329°
2026-04-27 17:23 -9.34550 147.04270 6003 ft 187 kts 329°
2026-04-27 17:24 -9.33454 147.03593 6002 ft 187 kts 329°
2026-04-27 17:24 -9.32342 147.02908 6003 ft 187 kts 329°
2026-04-27 17:24 -9.31233 147.02224 6002 ft 186 kts 329°
2026-04-27 17:24 -9.30125 147.01541 6005 ft 187 kts 329°
2026-04-27 17:25 -9.29016 147.00858 6007 ft 187 kts 329°
2026-04-27 17:25 -9.27908 147.00175 6003 ft 186 kts 329°
2026-04-27 17:25 -9.26800 146.99495 6003 ft 186 kts 331°
2026-04-27 17:25 -9.25574 146.99116 6014 ft 185 kts 356°
2026-04-27 17:26 -9.24302 146.99271 6017 ft 185 kts 20°
2026-04-27 17:26 -9.23199 146.99929 6019 ft 186 kts 43°
2026-04-27 17:26 -9.22423 147.00964 6021 ft 185 kts 60°
2026-04-27 17:26 -9.21752 147.02080 6020 ft 186 kts 59°
2026-04-27 17:27 -9.21069 147.03189 6017 ft 186 kts 59°
2026-04-27 17:27 -9.20427 147.04318 6024 ft 185 kts 68°
2026-04-27 17:27 -9.20216 147.05593 6025 ft 185 kts 93°
2026-04-27 17:27 -9.20518 147.06844 6024 ft 184 kts 116°
2026-04-27 17:28 -9.21285 147.07871 6026 ft 184 kts 140°
2026-04-27 17:28 -9.22354 147.08579 6022 ft 184 kts 150°
2026-04-27 17:28 -9.24622 147.09733 6023 ft 183 kts 165°
2026-04-27 17:29 -9.25848 147.10101 6019 ft 184 kts 162°
2026-04-27 17:29 -9.27059 147.10529 6017 ft 184 kts 160°
2026-04-27 17:29 -9.28257 147.10972 6019 ft 183 kts 160°
2026-04-27 17:29 -9.29457 147.11414 6019 ft 184 kts 161°
2026-04-27 17:30 -9.30656 147.11854 6019 ft 183 kts 161°
2026-04-27 17:30 -9.33059 147.12737 6017 ft 184 kts 161°
2026-04-27 17:30 -9.34261 147.13178 6019 ft 184 kts 161°
2026-04-27 17:31 -9.35464 147.13619 6017 ft 184 kts 161°
2026-04-27 17:31 -9.36665 147.14060 6011 ft 184 kts 160°
2026-04-27 17:31 -9.37865 147.14501 6011 ft 183 kts 160°
2026-04-27 17:31 -9.39063 147.14941 6014 ft 183 kts 161°
2026-04-27 17:32 -9.40260 147.15380 6012 ft 183 kts 161°
2026-04-27 17:32 -9.42653 147.16261 6009 ft 183 kts 160°
2026-04-27 17:32 -9.43848 147.16698 6007 ft 183 kts 160°
2026-04-27 17:33 -9.45044 147.17138 6007 ft 183 kts 160°
2026-04-27 17:33 -9.46258 147.17583 5849 ft 190 kts 160°
2026-04-27 17:33 -9.47514 147.18042 5633 ft 194 kts 160°
2026-04-27 17:33 -9.48798 147.18348 5429 ft 188 kts 182°
2026-04-27 17:34 -9.49970 147.17821 5231 ft 189 kts 223°
2026-04-27 17:34 -9.50571 147.16644 5033 ft 192 kts 255°
2026-04-27 17:34 -9.50533 147.15325 4825 ft 184 kts 287°
2026-04-27 17:34 -9.50024 147.14227 4602 ft 164 kts 298°
2026-04-27 17:35 -9.49345 147.13360 4372 ft 158 kts 324°
2026-04-27 17:35 -9.48404 147.12787 4138 ft 155 kts 334°
2026-04-27 17:35 -9.47478 147.12238 3997 ft 149 kts 332°
2026-04-27 17:35 -9.46617 147.11704 3986 ft 144 kts 331°
2026-04-27 17:36 -9.45771 147.11183 3989 ft 146 kts 332°
2026-04-27 17:36 -9.44894 147.10645 3993 ft 149 kts 332°
2026-04-27 17:36 -9.44012 147.10101 3988 ft 148 kts 331°
2026-04-27 17:36 -9.43146 147.09566 3985 ft 144 kts 332°
2026-04-27 17:37 -9.42293 147.09041 3988 ft 143 kts 331°
2026-04-27 17:37 -9.41450 147.08516 3990 ft 142 kts 331°
2026-04-27 17:37 -9.40712 147.08064 3990 ft 142 kts 331°
2026-04-27 17:37 -9.39863 147.07540 3996 ft 145 kts 331°
2026-04-27 17:38 -9.39002 147.07009 3992 ft 144 kts 331°
2026-04-27 17:38 -9.38147 147.06478 3994 ft 144 kts 331°
2026-04-27 17:38 -9.37286 147.05950 3998 ft 145 kts 331°
2026-04-27 17:38 -9.36427 147.05420 3994 ft 144 kts 332°
2026-04-27 17:39 -9.35581 147.04899 3993 ft 141 kts 331°
2026-04-27 17:39 -9.34752 147.04388 3995 ft 138 kts 331°
2026-04-27 17:39 -9.33924 147.03874 3993 ft 141 kts 331°
2026-04-27 17:39 -9.33084 147.03358 3995 ft 142 kts 331°
2026-04-27 17:40 -9.32240 147.02838 3994 ft 141 kts 330°
2026-04-27 17:40 -9.31408 147.02324 3991 ft 139 kts 330°
2026-04-27 17:40 -9.30583 147.01816 3994 ft 139 kts 331°
2026-04-27 17:40 -9.29749 147.01302 3998 ft 141 kts 331°
2026-04-27 17:41 -9.28908 147.00785 3998 ft 142 kts 331°
2026-04-27 17:41 -9.28075 147.00269 3992 ft 139 kts 331°
2026-04-27 17:41 -9.27257 146.99764 3992 ft 136 kts 330°
2026-04-27 17:41 -9.26447 146.99265 3950 ft 138 kts 331°
2026-04-27 17:42 -9.25589 146.98758 3789 ft 147 kts 340°
2026-04-27 17:42 -9.24575 146.98649 3519 ft 151 kts 14°
2026-04-27 17:42 -9.23666 146.99085 3237 ft 142 kts 47°
2026-04-27 17:42 -9.23079 146.99876 2948 ft 142 kts 63°
2026-04-27 17:43 -9.22563 147.00729 2645 ft 143 kts 62°
2026-04-27 17:43 -9.22058 147.01574 2491 ft 133 kts 64°
2026-04-27 17:43 -9.21598 147.02332 2475 ft 126 kts 60°
2026-04-27 17:43 -9.21157 147.03031 2540 ft 102 kts 64°
2026-04-27 17:44 -9.20827 147.03565 2505 ft 84 kts 63°
2026-04-27 17:44 -9.20509 147.04074 2506 ft 91 kts 62°
2026-04-27 17:44 -9.20182 147.04615 2500 ft 87 kts 62°
2026-04-27 17:44 -9.19873 147.05140 2499 ft 88 kts 62°
2026-04-27 17:45 -9.19547 147.05659 2503 ft 87 kts 62°
2026-04-27 17:45 -9.19341 147.06212 2497 ft 83 kts 92°
2026-04-27 17:45 -9.19509 147.06763 2504 ft 83 kts 124°
2026-04-27 17:45 -9.19984 147.07144 2500 ft 88 kts 150°
2026-04-27 17:46 -9.20504 147.07459 2515 ft 88 kts 146°
2026-04-27 17:46 -9.21034 147.07784 2534 ft 88 kts 144°
2026-04-27 17:46 -9.21565 147.08147 2561 ft 95 kts 144°
2026-04-27 17:46 -9.22128 147.08514 2500 ft 93 kts 146°
2026-04-27 17:47 -9.22691 147.08808 2492 ft 89 kts 147°
2026-04-27 17:47 -9.23051 147.09011 2493 ft 87 kts 148°
2026-04-27 17:47 -9.23752 147.09423 2512 ft 88 kts 146°
2026-04-27 17:47 -9.24278 147.09738 2499 ft 86 kts 147°
2026-04-27 17:48 -9.24789 147.10045 2497 ft 85 kts 146°
2026-04-27 17:48 -9.25302 147.10358 2527 ft 88 kts 147°
2026-04-27 17:48 -9.25880 147.10699 2496 ft 94 kts 146°
2026-04-27 17:48 -9.26401 147.11037 2490 ft 86 kts 144°
2026-04-27 17:49 -9.26904 147.11352 2488 ft 85 kts 145°
2026-04-27 17:49 -9.27412 147.11662 2490 ft 85 kts 145°
2026-04-27 17:49 -9.27909 147.11974 2484 ft 84 kts 146°
2026-04-27 17:49 -9.28402 147.12280 2494 ft 82 kts 145°
2026-04-27 17:50 -9.28884 147.12579 2497 ft 80 kts 146°
2026-04-27 17:50 -9.29886 147.13190 2521 ft 93 kts 147°
2026-04-27 17:50 -9.30458 147.13557 2514 ft 100 kts 147°
2026-04-27 17:51 -9.31016 147.13886 2513 ft 85 kts 143°
2026-04-27 17:51 -9.31499 147.14204 2504 ft 82 kts 144°
2026-04-27 17:51 -9.32012 147.14510 2493 ft 85 kts 148°
2026-04-27 17:51 -9.32517 147.14832 2474 ft 89 kts 143°
2026-04-27 17:52 -9.33064 147.15181 2353 ft 93 kts 147°
2026-04-27 17:52 -9.33577 147.15489 2244 ft 81 kts 145°
2026-04-27 17:52 -9.34082 147.15796 2146 ft 90 kts 145°
2026-04-27 17:52 -9.34439 147.16023 2063 ft 93 kts 147°
2026-04-27 17:53 -9.35156 147.16475 1916 ft 89 kts 146°
2026-04-27 17:53 -9.35695 147.16798 1786 ft 89 kts 144°
2026-04-27 17:53 -9.36217 147.17126 1658 ft 85 kts 147°
2026-04-27 17:53 -9.36683 147.17417 1569 ft 75 kts 147°
2026-04-27 17:54 -9.37105 147.17678 1464 ft 68 kts 144°
2026-04-27 17:54 -9.37535 147.17946 1396 ft 78 kts 147°
2026-04-27 17:54 -9.38009 147.18250 1280 ft 81 kts 146°
2026-04-27 17:54 -9.38498 147.18538 1176 ft 77 kts 147°
2026-04-27 17:55 -9.38938 147.18814 1074 ft 72 kts 147°
2026-04-27 17:55 -9.39340 147.19076 982 ft 66 kts 146°
2026-04-27 17:55 -9.39743 147.19317 904 ft 72 kts 148°
2026-04-27 17:55 -9.40196 147.19599 722 ft 79 kts 147°
2026-04-27 17:56 -9.40642 147.19911 549 ft 79 kts 148°
2026-04-27 17:56 -9.41103 147.20184 422 ft 77 kts 146°
2026-04-27 17:56 -9.41554 147.20456 297 ft 73 kts 148°
2026-04-27 17:56 -9.41980 147.20721 266 ft 70 kts 147°
2026-04-27 17:57 -9.42402 147.20980 244 ft 72 kts 147°
2026-04-27 17:57 -9.42840 147.21242 168 ft 73 kts 149°
2026-04-27 17:57 -9.43256 147.21503 121 ft 69 kts 149°
2026-04-27 17:57 -9.43645 147.21745 112 ft 59 kts 147°
2026-04-27 17:58 -9.43742 147.21805 114 ft 0 kts 149°
2026-04-27 17:59 -9.43743 147.21805 114 ft 1 kts 148°
2026-04-27 17:59 -9.43764 147.21820 112 ft 8 kts 153°
2026-04-27 17:59 -9.43843 147.21847 115 ft 12 kts 151°
2026-04-27 17:59 -9.43885 147.21879 115 ft 6 kts 188°
2026-04-27 18:00 -9.43918 147.21839 116 ft 9 kts 241°
2026-04-27 18:00 -9.43959 147.21774 116 ft 12 kts 238°
2026-04-27 18:00 -9.43994 147.21715 120 ft 10 kts 239°
2026-04-27 18:00 -9.44030 147.21650 120 ft 12 kts 240°
2026-04-27 18:01 -9.44077 147.21586 121 ft 10 kts 217°
2026-04-27 18:01 -9.44146 147.21588 122 ft 7 kts 186°
2026-04-27 18:01 -9.44171 147.21570 122 ft 3 kts 239°
2026-04-27 18:01 -9.44191 147.21539 121 ft 8 kts 234°
2026-04-27 18:02 -9.44221 147.21491 121 ft 9 kts 245°
2026-04-27 18:02 -9.44230 147.21471 117 ft 0 kts 243°
2026-04-27 18:02 -9.44233 147.21464 121 ft 4 kts 248°
2026-04-27 18:02 -9.44232 147.21421 121 ft 8 kts 245°
2026-04-27 18:03 -9.44238 147.21413 119 ft 0 kts 230°